Morgantown, WV

9:52 PM EST on January 18, 2018 (GMT -0500)
Morgantown Municipal-Hart

Weather History for KMGW - December, 2005

Change the Weather History Date:

Wednesday, December 28, 2005

  Actual Average Record
Temperature  
Mean Temperature 48 °F 32 °F  
Max Temperature 62 °F 40 °F 72 °F (1982)
Min Temperature 33 °F 25 °F -13 °F (1894)
Degree Days  
Heating Degree Days 18 33  
Month to date heating degree days 838  
Since 1 July heating degree days 1886  
Cooling Degree Days 0 0  
Month to date cooling degree days 0  
Year to date cooling degree days 814  
Moisture  
Dew Point 38 °F    
Average Humidity 63    
Maximum Humidity 89    
Minimum Humidity 43    
Precipitation  
Precipitation 0.01 in 0.09 in 1.52 in (1874)
Month to date precipitation 2.66  
Year to date precipitation 41.58  
Sea Level Pressure  
Sea Level Pressure 29.61 in    
Wind  
Wind Speed 5 mph (South)    
Max Wind Speed 12 mph    
Max Gust Speed -    
Visibility 10 miles    
Events Rain    
T = Trace of Precipitation, MM = Missing Value Source: NWS Daily Summary

Daily Weather History Graph

Daily Weather History Graph

Search for Another Location

Airport or City:

Trip Planner

Search our weather history database for the weather conditions in past years. The results will help you decide how hot, cold, wet, or windy it might be!

Date:

Astronomy

Dec. 28, 2005 Rise Set
Actual Time 7:39 AM EST 5:03 PM EST
Civil Twilight 7:09 AM EST 5:33 PM EST
Nautical Twilight 6:35 AM EST 6:07 PM EST
Astronomical Twilight 6:02 AM EST 6:40 PM EST
Moon 5:11 AM EST (12/28) 2:30 PM EST (12/28)
Length of Visible Light 10h 24m
Length of Day
9h 23m
Waning Crescent, 8% of the Moon is Illuminated
Dec 28
Waning Crescent
Dec 30
New
Jan 6
First Quarter
Jan 14
Full
Jan 22
Last Quarter

Hourly Weather History & Observations

Time (EST) Temp. Windchill Dew Point Humidity Pressure Visibility Wind Dir Wind Speed Gust Speed Precip Events Conditions
12:53 AM 33.1 °F - 30.0 °F 89% 29.82 in 5.0 mi Calm Calm - N/A   Overcast
1:53 AM 33.1 °F - 30.0 °F 89% 29.82 in 6.0 mi Calm Calm - N/A   Overcast
2:53 AM 36.0 °F 33.3 °F 32.0 °F 86% 29.81 in 8.0 mi South 3.5 mph - N/A   Overcast
3:53 AM 44.1 °F 41.5 °F 33.1 °F 65% 29.78 in 10.0 mi SSW 4.6 mph - N/A   Overcast
4:53 AM 46.0 °F 44.8 °F 34.0 °F 63% 29.75 in 10.0 mi SSW 3.5 mph - N/A   Overcast
5:53 AM 46.9 °F - 36.0 °F 66% 29.74 in 10.0 mi South 5.8 mph - N/A   Overcast
6:53 AM 46.9 °F - 34.0 °F 61% 29.73 in 10.0 mi South 6.9 mph - N/A   Partly Cloudy
7:53 AM 48.0 °F - 36.0 °F 63% 29.71 in 10.0 mi South 5.8 mph - N/A   Overcast
8:53 AM 51.1 °F - 37.9 °F 61% 29.69 in 10.0 mi South 8.1 mph - N/A   Mostly Cloudy
9:53 AM 54.0 °F - 37.9 °F 55% 29.69 in 10.0 mi South 6.9 mph - N/A   Overcast
10:53 AM 57.0 °F - 39.0 °F 51% 29.68 in 10.0 mi South 8.1 mph - N/A   Overcast
11:53 AM 59.0 °F - 39.9 °F 49% 29.61 in 10.0 mi South 6.9 mph - N/A   Mostly Cloudy
12:53 PM 62.1 °F - 41.0 °F 46% 29.56 in 10.0 mi South 8.1 mph - N/A   Mostly Cloudy
1:53 PM 62.1 °F - 39.0 °F 43% 29.53 in 10.0 mi South 9.2 mph - N/A   Mostly Cloudy
2:53 PM 60.1 °F - 39.9 °F 47% 29.52 in 10.0 mi South 6.9 mph - 0.01 in Rain Light Rain
3:53 PM 59.0 °F - 39.9 °F 49% 29.48 in 10.0 mi SSE 5.8 mph - 0.00 in   Overcast
4:53 PM 59.0 °F - 41.0 °F 51% 29.47 in 10.0 mi South 8.1 mph - N/A   Partly Cloudy
6:53 PM 54.0 °F - 39.0 °F 57% 29.45 in 10.0 mi South 11.5 mph - N/A   Clear
7:53 PM 53.1 °F - 39.0 °F 59% 29.44 in 10.0 mi SSE 11.5 mph - N/A   Scattered Clouds
8:53 PM 55.0 °F - 39.9 °F 57% 29.47 in 10.0 mi SW 10.4 mph - N/A   Overcast
9:53 PM 51.1 °F - 44.1 °F 77% 29.47 in 10.0 mi SW 4.6 mph - 0.00 in Rain Light Rain
10:53 PM 48.9 °F - 45.0 °F 86% 29.46 in 10.0 mi South 5.8 mph - 0.00 in   Overcast
11:53 PM 48.9 °F - 44.1 °F 83% 29.44 in 10.0 mi SSW 5.8 mph - 0.00 in Rain Light Rain